Location: Chandolas
(44.4033°N, 4.2533°E)
Time: 13:46:13
(UTC+00:00)

Cosmos 2369 - Pass Details

Date: 01 March 2020
Orbit: 841 x 855 km, 71.0° (Epoch: 07 April)

Event Time Altitude Azimuth Distance (km) Brightness Sun altitude
Rises 19:06:18 0° 174° (S) 3,409 6.7 -17.7°
Reaches altitude 10° 19:08:59 10° 165° (SSE) 2,477 5.9 -18.2°
Enters shadow 19:12:39 28° 128° (SE) 1,536 4.6 -18.8°
